This is the latest recevied weather packets stored in our database for station/object DM3FAM-10. If no packets are shown the sender has not sent any weather packets the latest 1 day(s).
| Time | Temp. | Humidity | Pressure | Rain* | Wind** | Luminosity | Snow |
|---|---|---|---|---|---|---|---|
| 1778044056 | 7.78° C | 100% | 958.5 hPa | - | - | - | - |
| 1778043156 | 7.78° C | 100% | 958.6 hPa | - | - | - | - |
| 1778042256 | 7.78° C | 100% | 958.6 hPa | - | - | - | - |
| 1778041356 | 8.33° C | 100% | 958.6 hPa | - | - | - | - |
| 1778040456 | 8.33° C | 100% | 958.9 hPa | - | - | - | - |
| 1778039556 | 8.33° C | 100% | 958.9 hPa | - | - | - | - |
| 1778038656 | 8.33° C | 100% | 958.9 hPa | - | - | - | - |
| 1778036855 | 8.89° C | 100% | 959.2 hPa | - | - | - | - |
| 1778035955 | 8.89° C | 100% | 959.2 hPa | - | - | - | - |
| 1778035055 | 8.89° C | 100% | 959.4 hPa | - | - | - | - |
| 1778033255 | 8.33° C | 100% | 959.5 hPa | - | - | - | - |
| 1778032355 | 8.33° C | 100% | 959.6 hPa | - | - | - | - |
| 1778031455 | 7.78° C | 100% | 959.9 hPa | - | - | - | - |
| 1778030555 | 7.22° C | 100% | 960 hPa | - | - | - | - |
| 1778029655 | 7.22° C | 100% | 960.1 hPa | - | - | - | - |
| 1778028755 | 7.78° C | 100% | 959.9 hPa | - | - | - | - |
| 1778027855 | 7.22° C | 100% | 960 hPa | - | - | - | - |
| 1778026955 | 7.22° C | 100% | 960.2 hPa | - | - | - | - |
| 1778026055 | 7.78° C | 100% | 960.4 hPa | - | - | - | - |
| 1778025155 | 7.78° C | 100% | 960.5 hPa | - | - | - | - |
| 1778024255 | 7.22° C | 100% | 960.6 hPa | - | - | - | - |
| 1778015254 | 9.44° C | 100% | 961 hPa | - | - | - | - |
| 1778013454 | 10° C | 100% | 961 hPa | - | - | - | - |
| 1778012554 | 10° C | 100% | 960.9 hPa | - | - | - | - |
| 1778011654 | 10° C | 100% | 960.7 hPa | - | - | - | - |
* Rain since midnight (hover to see other rain measurements)
** Current wind speed in m/s (hover to see current wind gust speed)